Dewpoint
30 31 31 31 32 31 33 32 33 36 36 37 37 39 39 40 40 42 43 44 45 46 47 46 48 47 47
29 29 30 31 30 31 30 29 31 33 36 35 36 38 38 39 40 41 41 43 44 46 47 47 47 47 47
30 30 30 30 30 29 29 30 29 33 34 36 37 38 38 38 41 42 42 42 44 45 47 46 46 46 47
28 28 28 29 29 29 28 29 28 29 32 35 37 37 37 39 41 41 44 42 45 46 44 44 48 47 46
27 28 27 27 27 27 28 29 30 32 33 34 35 35 37 39 39 41 44 44 45 44 44 44 46 47 47
27 26 25 26 27 28 31 29 28 33 32 34 35 34 36 38 41 41 45 45 43 42 42 43 43 43 43
28 27 27 28 29 29 29 29 30 32 34 32 35 36 36 37 40 41 43 43 43 43 43 42 42 42 41
29 30 31 31 31 30 30 31 33 32 33 30 34 33 35 37 39 41 43 43 42 42 41 40 39 37 36
31 30 30 31 30 30 29 30 29 30 32 33 32 32 34 36 36 39 42 41 41 41 41 40 38 36 33
27 28 29 29 31 30 30 30 30 28 32 31 30 31 30 36 35 34 36 41 40 40 40 39 35 32 32
27 28 27 27 29 30 32 32 30 30 31 33 31 30 32 31 35 33 33 35 36 37 39 37 33 30 27
25 25 25 26 27 28 31 33 34 32 33 32 30 30 30 31 31 33 33 33 34 33 33 35 34 33 30
24 24 25 25 29 29 31 33 32 32 33 33 32 31 31 31 31 31 32 31 34 32 30 27 26 25 24
24 23 25 27 27 28 31 29 29 29 33 33 32 32 32 31 31 31 32 31 31 30 27 25 24 26 27
22 23 23 25 26 29 29 29 27 27 27 29 32 32 31 31 30 30 29 28 29 28 26 26 27 27 25
23 24 24 24 26 29 29 28 27 26 25 27 27 29 30 30 32 29 29 28 29 28 26 26 24 25 27
23 24 24 24 26 28 27 27 26 25 25 25 26 27 26 26 27 32 28 28 28 27 26 25 25 26 26
Lifted_Index
18 18 17 17 17 17 17 17 17 16 16 15 15 14 14 13 13 12 11 9 8 7 5 4 3 2 2
18 17 17 17 17 17 17 17 17 16 16 15 15 14 14 13 12 11 10 8 7 5 4 3 2 1 1
17 17 17 17 17 17 17 17 17 17 16 15 15 14 13 12 10 9 7 6 5 3 2 2 1 1 0
16 16 16 16 16 16 16 17 17 17 16 15 15 13 12 10 8 6 5 4 3 3 2 2 2 1 1
15 15 15 16 16 16 17 17 17 16 16 15 14 12 10 8 6 4 3 3 3 3 3 3 2 2 2
15 15 15 16 17 17 17 17 16 16 15 14 12 10 9 7 5 4 3 3 3 4 4 4 4 4 4
16 16 16 17 17 17 17 17 16 16 14 12 10 9 7 6 5 4 3 3 4 4 5 5 5 6 6
17 17 17 17 17 17 17 16 15 14 13 10 8 7 6 5 5 4 4 4 4 5 6 6 7 7 8
18 17 17 16 16 17 16 15 14 13 11 9 7 6 6 5 5 5 5 5 5 6 7 7 8 9 9
17 17 16 16 16 16 16 15 13 11 9 8 7 6 5 5 6 5 5 6 6 7 7 8 8 9 10
17 16 16 15 16 16 15 14 11 9 8 7 6 6 6 5 6 6 6 6 7 7 8 8 9 10 10
17 16 15 15 15 15 13 12 10 8 7 7 6 6 6 5 5 6 6 6 7 8 8 9 10 10 11
16 16 15 15 14 13 11 10 8 7 7 7 6 6 6 5 5 6 6 7 7 8 8 9 10 11 11
16 16 15 14 13 11 10 8 7 6 7 7 7 6 6 6 6 6 6 7 7 8 8 9 10 11 12
15 15 14 13 11 10 8 7 6 6 6 7 7 7 6 6 6 6 7 7 8 8 9 9 10 11 12
15 15 14 12 10 9 8 7 6 6 6 7 7 7 6 7 7 7 8 8 8 8 9 9 9 11 12
15 14 13 11 10 8 7 7 6 6 6 7 7 7 6 6 7 8 8 8 8 8 9 9 9 10 11